Time,TemperatureF,DewpointF,PressureIn,WindDirection,WindDirectionDegrees,WindSpeedMPH,WindSpeedGustMPH,Humidity,HourlyPrecipIn,Conditions,Clouds,dailyrainin,SolarRadiationWatts/m^2,SoftwareType,DateUTC
2013-05-21 00:23:00,68.0,68.0,-100.00,ENE,72,3.0,6.0,100,0.00,,,0.72,0.000000,,2013-05-21 04:23:00,
2013-05-21 00:33:00,68.0,68.0,-100.00,ENE,72,3.0,6.0,100,0.00,,,0.72,0.000000,,2013-05-21 04:33:00,
2013-05-21 00:42:00,68.0,68.0,-100.00,ENE,72,3.0,6.0,100,0.00,,,0.72,0.000000,,2013-05-21 04:42:00,
2013-05-21 00:52:00,68.0,68.0,-100.00,ENE,72,3.0,6.0,100,0.00,,,0.72,0.000000,,2013-05-21 04:52:00,
2013-05-21 01:22:00,69.0,69.0,-100.00,East,89,1.0,3.0,100,0.00,,,0.72,0.000000,,2013-05-21 05:22:00,
2013-05-21 01:32:00,69.0,69.0,-100.00,East,89,1.0,3.0,100,0.00,,,0.72,0.000000,,2013-05-21 05:32:00,
2013-05-21 01:42:00,69.0,69.0,-100.00,East,89,1.0,3.0,100,0.00,,,0.72,0.000000,,2013-05-21 05:42:00,
2013-05-21 01:52:00,69.0,69.0,-100.00,East,89,1.0,3.0,100,0.00,,,0.72,0.000000,,2013-05-21 05:52:00,
2013-05-21 02:12:00,68.0,68.0,-100.00,SE,136,0.0,3.0,100,0.00,,,0.72,0.000000,,2013-05-21 06:12:00,
2013-05-21 02:21:00,68.0,68.0,-100.00,SE,136,0.0,3.0,100,0.00,,,0.72,0.000000,,2013-05-21 06:21:00,
2013-05-21 02:32:00,68.0,68.0,-100.00,SE,136,0.0,3.0,100,0.00,,,0.72,0.000000,,2013-05-21 06:32:00,
2013-05-21 02:42:00,68.0,68.0,-100.00,SE,136,0.0,3.0,100,0.00,,,0.72,0.000000,,2013-05-21 06:42:00,
2013-05-21 02:52:00,68.0,68.0,-100.00,SE,136,0.0,3.0,100,0.00,,,0.72,0.000000,,2013-05-21 06:52:00,
2013-05-21 03:22:00,69.0,69.0,-100.00,SSE,168,1.0,5.0,100,0.00,,,0.72,0.000000,,2013-05-21 07:22:00,
2013-05-21 03:32:00,69.0,69.0,-100.00,SSE,168,1.0,5.0,100,0.00,,,0.72,0.000000,,2013-05-21 07:32:00,
2013-05-21 03:42:00,69.0,69.0,-100.00,SSE,168,1.0,5.0,100,0.00,,,0.72,0.000000,,2013-05-21 07:42:00,
2013-05-21 03:52:00,69.0,69.0,-100.00,SSE,168,1.0,5.0,100,0.00,,,0.72,0.000000,,2013-05-21 07:52:00,
2013-05-21 04:21:00,68.0,68.0,-100.00,North,359,0.0,3.0,100,0.00,,,0.72,0.000000,,2013-05-21 08:21:00,
2013-05-21 04:31:00,68.0,68.0,-100.00,North,359,0.0,3.0,100,0.00,,,0.72,0.000000,,2013-05-21 08:31:00,
2013-05-21 04:42:00,68.0,68.0,-100.00,North,359,0.0,3.0,100,0.00,,,0.72,0.000000,,2013-05-21 08:42:00,
2013-05-21 04:52:00,68.0,68.0,-100.00,North,359,0.0,3.0,100,0.00,,,0.72,0.000000,,2013-05-21 08:52:00,
2013-05-21 05:21:00,69.0,69.0,-100.00,NW,322,0.0,2.0,100,0.00,,,0.72,0.000000,,2013-05-21 09:21:00,
2013-05-21 05:33:00,69.0,69.0,-100.00,NW,322,0.0,2.0,100,0.00,,,0.72,0.000000,,2013-05-21 09:33:00,
2013-05-21 05:42:00,69.0,69.0,-100.00,NW,322,0.0,2.0,100,0.00,,,0.72,0.000000,,2013-05-21 09:42:00,
2013-05-21 05:52:00,69.0,69.0,-100.00,NW,322,0.0,2.0,100,0.00,,,0.72,0.000000,,2013-05-21 09:52:00,
2013-05-21 06:22:00,69.0,69.0,-100.00,WNW,300,1.0,2.0,100,0.00,,,0.72,0.000000,,2013-05-21 10:22:00,
2013-05-21 06:33:00,69.0,69.0,-100.00,WNW,300,1.0,2.0,100,0.00,,,0.72,0.000000,,2013-05-21 10:33:00,
2013-05-21 06:42:00,69.0,69.0,-100.00,WNW,300,1.0,2.0,100,0.00,,,0.72,0.000000,,2013-05-21 10:42:00,
2013-05-21 06:52:00,69.0,69.0,-100.00,WNW,300,1.0,2.0,100,0.00,,,0.72,0.000000,,2013-05-21 10:52:00,
2013-05-21 07:22:00,71.0,71.0,-100.00,East,101,1.0,4.0,100,0.00,,,0.72,2.000000,,2013-05-21 11:22:00,
2013-05-21 07:32:00,71.0,71.0,-100.00,East,101,1.0,4.0,100,0.00,,,0.72,2.000000,,2013-05-21 11:32:00,
2013-05-21 07:42:00,71.0,71.0,-100.00,East,101,1.0,4.0,100,0.00,,,0.72,2.000000,,2013-05-21 11:42:00,
2013-05-21 07:52:00,71.0,71.0,-100.00,East,101,1.0,4.0,100,0.00,,,0.72,2.000000,,2013-05-21 11:52:00,
2013-05-21 08:21:00,72.0,72.0,-100.00,East,96,0.0,3.0,100,0.00,,,0.39,21.000000,,2013-05-21 12:21:00,
2013-05-21 08:32:00,72.0,72.0,-100.00,East,96,0.0,3.0,100,0.00,,,0.39,21.000000,,2013-05-21 12:32:00,
2013-05-21 08:42:00,72.0,72.0,-100.00,East,96,0.0,3.0,100,0.00,,,0.39,21.000000,,2013-05-21 12:42:00,
2013-05-21 08:51:00,72.0,72.0,-100.00,East,96,0.0,3.0,100,0.00,,,0.39,21.000000,,2013-05-21 12:51:00,
2013-05-21 09:22:00,75.0,75.0,-100.00,SSE,150,1.0,4.0,100,0.00,,,0.37,209.000000,,2013-05-21 13:22:00,
2013-05-21 09:32:00,75.0,75.0,-100.00,SSE,150,1.0,4.0,100,0.00,,,0.37,209.000000,,2013-05-21 13:32:00,
2013-05-21 09:42:00,75.0,75.0,-100.00,SSE,150,1.0,4.0,100,0.00,,,0.37,209.000000,,2013-05-21 13:42:00,
2013-05-21 09:52:00,75.0,75.0,-100.00,SSE,150,1.0,4.0,100,0.00,,,0.37,209.000000,,2013-05-21 13:52:00,
2013-05-21 10:21:00,80.0,73.0,-100.00,SSW,205,4.0,7.0,80,0.00,,,0.37,535.000000,,2013-05-21 14:21:00,
2013-05-21 10:32:00,80.0,73.0,-100.00,SSW,205,4.0,7.0,80,0.00,,,0.37,535.000000,,2013-05-21 14:32:00,
2013-05-21 10:42:00,80.0,73.0,-100.00,SSW,205,4.0,7.0,80,0.00,,,0.37,535.000000,,2013-05-21 14:42:00,
2013-05-21 10:51:00,80.0,73.0,-100.00,SSW,205,4.0,7.0,80,0.00,,,0.37,535.000000,,2013-05-21 14:51:00,
2013-05-21 12:23:00,80.0,71.0,-100.00,South,184,9.0,13.0,74,-99.99,,,0.12,444.000000,,2013-05-21 16:23:00,
2013-05-21 12:32:00,80.0,71.0,-100.00,South,184,9.0,13.0,74,-99.99,,,0.12,444.000000,,2013-05-21 16:32:00,
2013-05-21 12:42:00,80.0,71.0,-100.00,South,184,9.0,13.0,74,-99.99,,,0.12,444.000000,,2013-05-21 16:42:00,
2013-05-21 12:52:00,80.0,71.0,-100.00,South,184,9.0,13.0,74,-99.99,,,0.12,444.000000,,2013-05-21 16:52:00,
2013-05-21 13:23:00,72.0,71.0,-100.00,SSE,150,10.0,24.0,97,1.97,,,2.09,70.000000,,2013-05-21 17:23:00,
2013-05-21 13:33:00,72.0,71.0,-100.00,SSE,150,10.0,24.0,97,1.97,,,2.09,70.000000,,2013-05-21 17:33:00,
2013-05-21 13:43:00,72.0,71.0,-100.00,SSE,150,10.0,24.0,97,1.97,,,2.09,70.000000,,2013-05-21 17:43:00,
2013-05-21 13:52:00,72.0,71.0,-100.00,SSE,150,10.0,24.0,97,1.97,,,2.09,70.000000,,2013-05-21 17:52:00,
2013-05-21 14:22:00,73.0,72.0,-100.00,SSE,150,8.0,23.0,97,0.94,,,3.03,95.000000,,2013-05-21 18:22:00,
2013-05-21 14:32:00,73.0,72.0,-100.00,SSE,150,8.0,23.0,97,0.94,,,3.03,95.000000,,2013-05-21 18:32:00,
2013-05-21 14:42:00,73.0,72.0,-100.00,SSE,150,8.0,23.0,97,0.94,,,3.03,95.000000,,2013-05-21 18:42:00,
2013-05-21 14:52:00,73.0,72.0,-100.00,SSE,150,8.0,23.0,97,0.94,,,3.03,95.000000,,2013-05-21 18:52:00,
2013-05-21 15:22:00,76.0,73.0,-100.00,SSE,151,9.0,13.0,89,0.00,,,3.02,529.000000,,2013-05-21 19:22:00,
2013-05-21 15:32:00,76.0,73.0,-100.00,SSE,151,9.0,13.0,89,0.00,,,3.02,529.000000,,2013-05-21 19:32:00,
2013-05-21 15:42:00,76.0,73.0,-100.00,SSE,151,9.0,13.0,89,0.00,,,3.02,529.000000,,2013-05-21 19:42:00,
2013-05-21 15:52:00,76.0,73.0,-100.00,SSE,151,9.0,13.0,89,0.00,,,3.02,529.000000,,2013-05-21 19:52:00,
2013-05-21 16:22:00,76.0,72.0,-100.00,SSE,157,9.0,14.0,87,0.00,,,3.02,381.000000,,2013-05-21 20:22:00,
2013-05-21 16:32:00,76.0,72.0,-100.00,SSE,157,9.0,14.0,87,0.00,,,3.02,381.000000,,2013-05-21 20:32:00,
2013-05-21 16:42:00,76.0,72.0,-100.00,SSE,157,9.0,14.0,87,0.00,,,3.02,381.000000,,2013-05-21 20:42:00,
2013-05-21 16:52:00,76.0,72.0,-100.00,SSE,157,9.0,14.0,87,0.00,,,3.02,381.000000,,2013-05-21 20:52:00,
2013-05-21 17:22:00,79.0,72.0,-100.00,SSE,164,10.0,14.0,79,0.00,,,3.01,723.000000,,2013-05-21 21:22:00,
2013-05-21 17:33:00,79.0,72.0,-100.00,SSE,164,10.0,14.0,79,0.00,,,3.01,723.000000,,2013-05-21 21:33:00,
2013-05-21 17:43:00,79.0,72.0,-100.00,SSE,164,10.0,14.0,79,0.00,,,3.01,723.000000,,2013-05-21 21:43:00,
2013-05-21 17:53:00,79.0,72.0,-100.00,SSE,164,10.0,14.0,79,0.00,,,3.01,723.000000,,2013-05-21 21:53:00,
2013-05-21 18:23:00,80.0,71.0,-100.00,SSE,165,7.0,15.0,73,0.00,,,3.00,615.000000,,2013-05-21 22:23:00,
2013-05-21 18:33:00,80.0,71.0,-100.00,SSE,165,7.0,15.0,73,0.00,,,3.00,615.000000,,2013-05-21 22:33:00,
2013-05-21 18:42:00,80.0,71.0,-100.00,SSE,165,7.0,15.0,73,0.00,,,3.00,615.000000,,2013-05-21 22:42:00,
2013-05-21 18:52:00,80.0,71.0,-100.00,SSE,165,7.0,15.0,73,0.00,,,3.00,615.000000,,2013-05-21 22:52:00,
2013-05-21 19:22:00,77.0,70.0,-100.00,South,176,9.0,12.0,80,0.00,,,2.99,333.000000,,2013-05-21 23:22:00,
2013-05-21 19:32:00,77.0,70.0,-100.00,South,176,9.0,12.0,80,0.00,,,2.99,333.000000,,2013-05-21 23:32:00,
2013-05-21 19:42:00,77.0,70.0,-100.00,South,176,9.0,12.0,80,0.00,,,2.99,333.000000,,2013-05-21 23:42:00,
2013-05-21 19:52:00,77.0,70.0,-100.00,South,176,9.0,12.0,80,0.00,,,2.99,333.000000,,2013-05-21 23:52:00,
2013-05-21 20:21:00,74.0,70.0,-100.00,SSE,157,9.0,12.0,87,0.00,,,2.98,39.000000,,2013-05-22 00:21:00,
2013-05-21 20:32:00,74.0,70.0,-100.00,SSE,157,9.0,12.0,87,0.00,,,2.98,39.000000,,2013-05-22 00:32:00,
2013-05-21 20:42:00,74.0,70.0,-100.00,SSE,157,9.0,12.0,87,0.00,,,2.98,39.000000,,2013-05-22 00:42:00,
2013-05-21 20:51:00,74.0,70.0,-100.00,SSE,157,9.0,12.0,87,0.00,,,2.98,39.000000,,2013-05-22 00:51:00,
2013-05-21 21:22:00,72.0,70.0,-100.00,SSE,154,7.0,12.0,92,0.00,,,2.95,4.000000,,2013-05-22 01:22:00,
2013-05-21 21:32:00,72.0,70.0,-100.00,SSE,154,7.0,12.0,92,0.00,,,2.95,4.000000,,2013-05-22 01:32:00,
2013-05-21 21:42:00,72.0,70.0,-100.00,SSE,154,7.0,12.0,92,0.00,,,2.95,4.000000,,2013-05-22 01:42:00,
2013-05-21 21:52:00,72.0,70.0,-100.00,SSE,154,7.0,12.0,92,0.00,,,2.95,4.000000,,2013-05-22 01:52:00,
2013-05-21 22:22:00,72.0,70.0,-100.00,SSE,159,7.0,11.0,92,0.00,,,2.91,0.000000,,2013-05-22 02:22:00,
2013-05-21 22:32:00,72.0,70.0,-100.00,SSE,159,7.0,11.0,92,0.00,,,2.91,0.000000,,2013-05-22 02:32:00,
2013-05-21 22:42:00,72.0,70.0,-100.00,SSE,159,7.0,11.0,92,0.00,,,2.91,0.000000,,2013-05-22 02:42:00,
2013-05-21 22:52:00,72.0,70.0,-100.00,SSE,159,7.0,11.0,92,0.00,,,2.91,0.000000,,2013-05-22 02:52:00,
2013-05-21 23:22:00,71.0,69.0,-100.00,SSE,151,4.0,11.0,94,0.00,,,2.91,0.000000,,2013-05-22 03:22:00,
2013-05-21 23:33:00,71.0,69.0,-100.00,SSE,151,4.0,11.0,94,0.00,,,2.91,0.000000,,2013-05-22 03:33:00,
2013-05-21 23:43:00,71.0,69.0,-100.00,SSE,151,4.0,11.0,94,0.00,,,2.91,0.000000,,2013-05-22 03:43:00,
2013-05-21 23:53:00,71.0,69.0,-100.00,SSE,151,4.0,11.0,94,0.00,,,2.91,0.000000,,2013-05-22 03:53:00,